Regional Weather Roundup
Issued by NWS

Home | Current Version | Previous Version | Text Only | Print | Product List | Glossary On
Versions: 1 2 3 4 5 6 7 8 9 10 11 12 13 14 15 16 17 18 19 20 21 22 23 24 25 26 27 28 29 30 31 32 33 34 35 36 37 38 39 40 41 42 43 44 45 46 47 48 49 50
424
ASUS43 KOAX 101710
RWRNE

WEATHER ROUNDUP FOR NEBRASKA
NATIONAL WEATHER SERVICE OMAHA NE
1100 AM CST SAT DEC 10 2016

NOTES: SATELLITE DATA IS BEING USED TO AUGMENT CLOUD COVER ABOVE
       12000 FEET.
       "FAIR" INDICATES FEW OR NO CLOUDS BELOW 12,000 FEET WITH NO
       SIGNIFICANT WEATHER AND/OR OBSTRUCTIONS TO VISIBILITY.

  * THESE STATIONS DO NOT REPORT WEATHER SUCH AS RAIN...SNOW OR FOG.

NEZ001>004-019>022-054>056-101800-
NEBRASKA PANHANDLE

CITY           SKY/WX    TMP DP  RH WIND       PRES   REMARKS
SCOTTSBLUFF    CLOUDY    20  14  77 E7        29.86F WCI  11
ALLIANCE       CLOUDY    20  15  81 S12       29.86F WCI   8
CHADRON        CLOUDY     9   4  80 CALM      29.92F
KIMBALL        CLOUDY    35  28  76 W3        29.85F
SIDNEY         CLOUDY    26  19  74 S8        29.88F WCI  18
$$

NEZ057>060-069>072-079>082-101800-
SOUTHWEST NEBRASKA

CITY           SKY/WX    TMP DP  RH WIND       PRES   REMARKS
NORTH PLATTE   CLOUDY    24  15  68 SE13      30.03F WCI  12
IMPERIAL       CLOUDY    22  18  85 VRB3      30.00R
LEXINGTON      CLOUDY    26  17  67 S14       30.10S WCI  15
MCCOOK         CLOUDY    24  18  77 S10       30.05F WCI  14
OGALLALA       CLOUDY    24  19  81 S6        29.98F WCI  17
$$

NEZ005>010-023>029-035>040-094-101800-
NORTH CENTRAL NEBRASKA

CITY           SKY/WX    TMP DP  RH WIND       PRES   REMARKS
VALENTINE      CLOUDY    11   6  81 E9        30.03F WCI  -2
AINSWORTH      CLOUDY    19  17  90 SE18      30.03F WCI   4
BROKEN BOW     CLOUDY    25  17  72 S18       30.06F WCI  11
O`NEILL        CLOUDY    22  18  85 SE16G22   30.15F WCI   8
ORD            CLOUDY    25  15  66 SE14G23   30.13F WCI  13
THEDFORD       CLOUDY    24  18  80 S14       30.01S WCI  11
$$

NEZ041-046>049-061>064-073>077-083>087-101800-
SOUTH CENTRAL NEBRASKA

CITY           SKY/WX    TMP DP  RH WIND       PRES   REMARKS
GRAND ISLAND   CLOUDY    27  19  72 SE13G25   30.18F WCI  16
AURORA         CLOUDY    28  19  69 S15G22    30.19F WCI  16
HASTINGS       CLOUDY    27  16  63 S15       30.18F WCI  15
HEBRON         PTSUNNY   30  17  58 SE13      30.24F WCI  20
HOLDREGE       CLOUDY    26  17  69 S20       30.10F WCI  12
KEARNEY *      CLOUDY    27  16  63 SE17      30.12F WCI  14
YORK           PTSUNNY   28  18  64 SE15      30.21F WCI  17
$$

NEZ011>018-030>034-042>045-101800-
NORTHEAST NEBRASKA

CITY           SKY/WX    TMP DP  RH WIND       PRES   REMARKS
NORFOLK        CLOUDY    21  17  84 SE16      30.23F WCI   7
ALBION         MOSUNNY   23  18  78 SE14      30.20F WCI  11
BLAIR          CLOUDY    25  20  81 SE9       30.30F WCI  15
FREMONT        CLOUDY    25  19  79 SE9       30.31F WCI  16
TEKAMAH        CLOUDY    23  19  85 SE9       30.34F WCI  13
WAYNE          CLOUDY    22  18  85 SE15      30.28F WCI   8
$$

NEZ050>053-065>068-078-088>093-101800-
SOUTHEAST NEBRASKA

CITY           SKY/WX    TMP DP  RH WIND       PRES   REMARKS
LINCOLN        CLOUDY    30  16  56 SE10      30.30F WCI  21
OMAHA EPPLEY   CLOUDY    26  17  68 SE10      30.34F WCI  16
BEATRICE       CLOUDY    31  17  54 SE12      30.28F WCI  22
FALLS CITY     CLOUDY    31  16  54 SE10      30.34F WCI  22
NEBRASKA CITY  CLOUDY    28  14  56 S8        30.33F WCI  20
PLATTSMOUTH    CLOUDY    28  14  57 SE10      30.32F WCI  18
$$

NEZ044-045-051>053-067-101800-
OMAHA AREA

CITY           SKY/WX    TMP DP  RH WIND       PRES   REMARKS
OMAHA EPPLEY   CLOUDY    26  17  68 SE10      30.34F WCI  16
BLAIR          CLOUDY    25  20  81 SE9       30.30F WCI  15
FREMONT        CLOUDY    25  19  79 SE9       30.31F WCI  16
MILLARD        CLOUDY    29  19  65 SE9       30.32F WCI  21
OFFUTT AFB     CLOUDY    28  18  65 SE10      30.32F WCI  19
PLATTSMOUTH    CLOUDY    28  14  57 SE10      30.32F WCI  18
WAHOO          FAIR      29  18  63 SE14G20   30.30F WCI  18
$$




USA.gov is the U.S. government's official web portal to all federal, state and local government web resources and services.